Content
SEND FEEDBACK

Daily
Averages
Monthly
Summary
United States of America

DURANGO, COLORADO


Home > North America > United States > Colorado
Elevation: 6685 feet     Latitude: 37 09N     Longitude: 107 45W

WEATHER
 
SELECT A DAY
Number of Records: 182,919;   Date Range: 1/1/95 - 7/29/14
 
SHARE

PRINT THIS DATA

[ ← Previous Day ]
WEATHER ALMANAC - MARCH 23, 2013
[ Next Day → ]
[ °C ]   °F
Weather ElementAverageHighLow
Temperature26.6 °F33.1 °F (4:53 pm)18 °F (10:53 pm)
Humidity33.2 %54 % (10:53 pm)20 % (1:53 pm)
Barometer29.92 in30.22 in (10:53 pm)29.66 in (1:53 am)
Wind Speed14.2 mph29.9 mph (8:53 am)
Wind Gust36.8 mph (12:53 pm)
Weather ElementAverage
Visibility10 mi
Wind DirectionW (265.7 °)

Weather ElementTotal
Precipitation---
Heating Degree Days39.5 (Base 65)
Averaged from 23 records on March 23, 2013
WEATHER CONDITIONS BREAKOUT
WIND DIRECTION BREAKOUT
WEATHER BY HOUR - MARCH 23, 2013
[ °C ]   °F
Local TimeTemperatureDewpointHumidityBarometerVisibilityWind DirectionWind SpeedGust SpeedPrecipitationEventsConditions
1:53 AM30.0 °F3.9 °F33 %29.66 in10.0 miSSW (200°)6.9 mphClear
2:53 AM30.0 °F5.0 °F35 %29.66 in10.0 miSW (220°)8.1 mphClear
3:53 AM27.0 °F6.1 °F41 %29.67 in10.0 miSW (220°)5.8 mphClear
4:53 AM25.0 °F6.1 °F45 %29.69 in10.0 miSSW (210°)9.2 mphClear
5:53 AM26.1 °F5.0 °F41 %29.71 in10.0 miWSW (250°)15.0 mphClear
6:53 AM25.0 °F-0.9 °F33 %29.75 in10.0 miWest (270°)18.4 mph28.8 mphClear
7:53 AM24.1 °F-9.0 °F23 %29.79 in10.0 miWest (260°)23.0 mph29.9 mphClear
8:53 AM24.1 °F-2.9 °F31 %29.81 in10.0 miWest (260°)29.9 mph35.7 mphClear
9:53 AM25.0 °F-4.0 °F28 %29.85 in10.0 miWNW (290°)24.2 mph34.5 mphClear
10:53 AM26.1 °F-5.1 °F26 %29.89 in10.0 miWNW (290°)19.6 mph32.2 mphOvercast
11:53 AM28.9 °F-4.0 °F24 %29.90 in10.0 miWNW (300°)15.0 mph32.2 mphMostly Cloudy
12:53 PM28.0 °F-6.0 °F23 %29.94 in10.0 miWNW (300°)25.3 mph36.8 mphMostly Cloudy
1:53 PM30.9 °F-6.0 °F20 %29.95 in10.0 miWNW (300°)23.0 mph29.9 mphMostly Cloudy
2:53 PM30.9 °F-5.1 °F21 %29.96 in10.0 miNW (320°)24.2 mph29.9 mphOvercast
3:53 PM30.9 °F-2.0 °F24 %29.99 in10.0 miNNW (340°)13.8 mphMostly Cloudy
4:53 PM33.1 °F0.0 °F24 %30.00 in10.0 miNorth (360°)12.7 mph19.6 mphMostly Cloudy
5:53 PM32.0 °F-2.9 °F22 %30.01 in10.0 miNNW (330°)16.1 mph24.2 mphMostly Cloudy
6:53 PM28.9 °F3.0 °F33 %30.08 in10.0 miNNW (340°)11.5 mphPartly Cloudy
7:53 PM25.0 °F3.0 °F39 %30.12 in10.0 miNNW (330°)8.1 mphClear
8:53 PM23.0 °F3.9 °F44 %30.16 in10.0 miNorth (360°)8.1 mphClear
9:53 PM21.9 °F5.0 °F48 %30.19 in10.0 miNorth (350°)3.5 mphClear
10:53 PM18.0 °F3.9 °F54 %30.22 in10.0 miCalmClear
11:53 PM19.0 °F3.9 °F52 %30.19 in10.0 miNorth (10°)5.8 mphClear
Hourly data recorded from KDRO, located miles away from Durango, Colorado







STORIES FROM OUR PARTNERS